Wind_Speed
4 5 14 12 11 4 4 5 7 4 3 5 7 9 16 8 4 11 12 9 10 14 10 19 23 30 31 32 35 37 37 36 35 32 28 24 22 18 14 11 9 8 6 3
3 20 9 8 7 6 5 6 6 3 3 5 4 11 14 8 9 10 15 13 12 8 7 7 18 26 31 33 35 37 39 39 38 36 33 26 24 19 15 13 12 10 8 5
21 2 12 13 8 15 12 13 6 4 1 2 4 7 11 7 7 10 10 17 14 13 12 8 10 23 28 32 36 38 40 42 41 38 33 21 22 14 16 16 14 12 10 7
14 9 16 9 17 15 16 8 5 2 3 4 2 6 6 6 9 6 11 12 19 19 9 7 10 17 26 29 36 39 41 42 42 39 34 31 30 18 20 20 16 13 10 8
11 13 11 12 12 16 7 9 12 5 2 3 3 3 6 3 8 14 16 13 13 13 10 12 13 22 29 32 37 39 40 41 43 41 38 34 28 24 16 17 16 15 13 10
7 3 17 15 4 15 8 8 6 4 3 3 8 7 6 7 10 9 9 6 7 8 9 8 10 20 23 27 32 36 39 40 42 42 38 35 30 25 17 19 19 17 14 11
5 4 3 5 8 5 6 9 2 1 0 9 3 7 17 9 8 9 9 4 5 6 6 7 10 13 23 28 32 36 38 35 41 40 38 35 31 26 22 22 23 21 18 16
12 8 13 6 9 8 8 12 6 7 4 3 1 8 7 13 16 7 7 7 6 6 4 8 8 13 23 28 31 33 36 33 39 40 38 35 30 26 22 20 22 22 20 16
11 12 4 7 5 13 8 12 8 7 2 3 5 8 9 15 15 8 10 8 10 7 5 7 7 12 19 24 27 31 32 32 37 38 38 35 30 26 23 20 20 21 19 17
3 1 6 7 5 3 13 11 6 1 5 4 5 6 7 7 9 5 4 8 7 5 5 5 6 9 16 20 22 27 29 34 37 37 36 35 32 27 24 21 22 22 21 19
2 3 2 7 11 18 5 13 5 6 4 6 2 6 9 16 6 4 5 8 7 7 7 6 6 10 18 19 23 28 31 34 35 36 36 34 32 28 24 23 23 23 22 22
11 2 3 12 3 2 6 9 6 8 9 2 2 6 3 4 8 4 3 5 4 5 6 6 6 9 13 16 22 26 26 30 33 35 35 33 32 29 26 25 24 24 23 22
15 7 2 4 4 2 16 9 22 4 4 11 7 6 4 6 7 7 2 6 6 5 6 7 7 6 10 14 20 24 28 29 30 32 32 32 32 31 28 26 24 24 23 22
2 4 18 15 14 5 3 17 19 12 4 12 16 1 3 4 7 7 6 6 8 6 4 5 6 5 8 14 19 22 25 26 28 29 31 32 33 33 30 26 25 25 23 22
4 7 6 16 8 15 9 9 10 20 25 9 12 6 7 2 1 3 5 5 7 7 5 4 5 5 7 11 15 19 22 24 26 28 29 31 31 31 29 27 25 24 23 23
1 3 7 6 6 7 5 13 14 13 21 15 4 5 2 2 4 5 7 5 5 6 4 4 5 6 6 12 16 20 22 24 25 28 29 30 30 29 28 26 26 25 24 23
4 3 3 5 10 9 13 9 14 19 4 20 9 6 3 4 6 5 5 6 6 6 4 6 7 7 10 14 17 21 23 24 25 26 26 28 30 30 29 27 26 26 25 24
5 5 3 2 4 3 1 9 10 16 14 16 3 11 10 6 4 6 5 5 5 2 5 6 0 4 8 12 16 17 21 25 27 28 27 27 29 31 30 28 28 28 26 26
3 3 3 3 3 7 7 5 3 2 18 12 12 5 5 5 6 3 3 5 6 4 4 4 8 4 6 15 18 20 22 25 27 29 30 31 32 33 32 30 30 29 28 27
5 1 3 1 3 4 4 4 8 6 10 6 10 10 15 6 5 6 5 5 2 4 4 5 6 6 7 10 18 23 24 26 27 31 32 32 33 34 35 33 32 30 29 28
6 3 8 6 2 5 9 6 5 3 3 4 3 7 6 7 6 3 4 4 3 1 3 5 4 1 3 8 16 22 24 30 31 29 30 31 33 35 35 34 33 31 30 28
6 7 5 3 2 8 7 3 7 5 2 5 8 6 5 2 4 3 2 4 7 7 7 5 1 2 3 8 17 22 28 23 23 27 30 32 33 35 34 34 33 31 30 28
2 6 6 9 7 7 3 9 8 7 6 4 4 2 7 7 2 2 5 5 4 5 7 4 5 5 3 10 18 21 24 19 19 25 31 33 33 34 34 34 34 32 31 31
2 4 5 3 6 8 6 7 5 5 9 11 7 8 9 7 9 6 5 7 6 4 6 6 8 9 12 5 15 23 16 14 20 27 31 33 34 35 35 35 35 36 35 31
4 3 6 5 7 10 11 10 10 12 12 9 6 8 10 9 8 8 5 7 8 7 12 8 10 11 17 16 15 16 19 18 23 26 28 30 32 36 36 36 38 38 38 39
5 7 3 8 12 12 15 16 21 18 16 14 8 8 5 9 10 6 7 7 9 11 17 12 12 14 22 15 16 16 15 21 25 25 26 28 28 29 30 31 27 29 34 34
Wind_Direction
225 184 211 193 201 205 169 169 187 217 231 179 224 253 265 265 215 274 269 245 246 248 246 235 226 217 206 204 203 202 200 198 194 189 186 190 195 197 196 192 188 185 183 163
196 228 196 168 204 188 168 185 216 276 210 183 270 265 263 256 246 215 245 255 243 243 233 206 207 199 194 193 196 199 201 197 196 196 193 193 194 198 198 193 190 187 188 179
209 233 175 177 186 205 215 207 173 185 111 232 327 273 258 263 248 248 234 243 253 234 235 204 186 191 187 186 190 193 197 200 197 198 192 187 186 187 193 195 193 192 189 185
236 224 187 185 211 190 221 144 139 142 76 234 99 283 275 260 261 250 251 229 240 245 222 199 186 185 189 187 189 195 196 197 197 198 194 193 188 183 201 199 191 190 189 189
212 169 173 212 203 181 214 157 195 182 166 22 203 289 264 277 271 260 254 239 231 236 206 212 195 190 188 181 184 189 195 195 197 197 200 198 195 200 196 192 189 189 188 188
213 207 187 197 141 178 134 93 63 63 104 273 201 186 229 221 217 246 243 220 239 245 230 210 191 172 171 175 175 180 188 190 198 199 200 201 199 195 185 186 187 188 189 191
135 202 264 146 120 150 164 139 39 31 27 236 314 194 248 248 253 233 260 249 247 311 228 186 164 166 165 170 171 178 183 185 196 197 199 203 204 200 197 193 189 188 188 193
195 197 188 187 182 164 178 166 156 181 206 212 141 230 252 236 262 256 256 246 271 274 196 191 178 170 172 174 173 174 179 182 190 196 200 203 204 202 202 201 196 196 195 193
199 231 127 190 143 146 188 199 165 103 25 85 216 284 282 250 257 240 241 232 245 250 197 193 173 166 168 174 175 176 176 181 187 193 198 200 200 201 201 200 201 198 196 192
293 229 210 166 120 219 183 158 153 330 142 227 265 280 241 298 271 237 221 231 232 200 161 165 162 151 159 169 170 175 177 183 188 194 198 198 198 200 199 200 199 196 195 193
196 184 297 148 207 180 149 185 182 118 155 174 204 255 215 225 266 295 224 201 222 174 160 146 138 142 151 159 165 172 178 184 190 195 196 197 196 196 197 201 199 195 193 193
202 149 173 213 202 248 193 182 157 184 216 225 154 265 344 285 272 278 311 105 113 132 129 126 128 130 141 150 164 172 176 184 193 194 194 195 194 193 196 199 198 195 194 192
193 196 150 16 326 267 200 207 201 118 88 205 186 254 340 36 37 18 145 73 80 100 111 119 126 143 152 161 166 176 187 191 193 193 193 194 194 194 196 197 196 196 195 193
60 208 216 212 213 130 224 208 204 199 168 207 216 258 79 26 20 25 38 58 85 89 116 114 122 139 155 169 175 180 186 192 192 193 194 194 195 196 197 195 196 196 195 193
46 45 339 236 260 194 198 209 202 209 222 192 209 185 284 110 59 76 72 50 87 92 97 129 138 145 150 166 179 185 188 189 192 192 194 196 198 199 197 195 195 195 196 196
23 50 346 3 288 320 316 214 195 215 229 241 132 214 231 138 80 78 93 105 91 108 153 159 150 157 174 183 184 186 189 192 192 194 196 197 198 197 196 194 194 195 195 196
148 110 33 326 357 318 252 241 218 218 192 219 204 188 151 158 142 153 155 114 106 108 154 182 183 189 191 199 198 194 192 189 191 196 197 197 197 194 195 195 194 194 196 198
157 118 109 280 334 268 200 303 290 242 231 223 183 189 226 211 188 165 146 115 122 38 336 330 32 177 202 205 207 207 197 191 192 195 198 199 197 196 195 195 195 196 198 201
139 107 133 136 153 280 317 7 19 244 248 236 226 171 175 235 139 204 180 139 150 191 241 276 297 273 211 197 199 202 199 198 197 199 199 198 197 197 197 196 197 199 199 201
173 78 104 180 131 210 228 79 334 290 271 261 195 199 208 161 214 221 183 153 229 264 247 221 233 255 251 218 195 194 198 201 202 204 203 200 198 200 199 200 200 202 203 205
168 172 192 201 188 261 248 288 79 193 285 317 195 173 144 184 220 163 106 89 116 288 333 148 159 214 270 216 197 200 203 210 214 210 207 203 202 202 203 203 204 203 204 206
163 173 189 198 154 265 198 127 197 224 295 356 49 52 76 94 101 94 9 360 352 340 346 20 255 237 229 197 196 203 218 223 218 212 208 206 205 204 203 205 204 204 204 201
229 186 199 189 207 262 175 205 209 180 226 183 149 119 316 316 286 213 300 303 288 296 299 330 338 325 231 211 207 212 233 223 217 212 210 207 205 205 204 202 202 199 202 201
261 177 204 91 246 250 243 266 295 278 236 246 184 181 195 216 245 224 239 279 289 272 263 295 321 321 313 275 234 239 246 230 216 210 211 207 202 201 203 204 204 200 198 196
201 90 211 229 252 283 276 263 244 260 260 266 266 187 211 223 237 224 217 253 267 270 269 276 286 287 291 309 302 281 257 232 211 210 210 206 201 199 198 203 203 203 207 205
186 225 160 254 250 244 252 250 253 246 246 255 254 285 213 209 233 221 226 231 238 252 259 246 247 273 287 298 293 283 262 230 211 202 202 199 194 192 191 189 190 206 213 208
Height
771 776 767 764 763 760 765 771 770 770 762 766 771 768 752 750 751 750 743 744 742 736 732 735 737 743 749 755 759 765 770 776 782 787 792 796 799 802 806 808 810 811 813 814
774 757 757 761 764 763 765 768 769 764 762 766 762 761 747 746 742 741 733 731 730 728 727 728 731 736 740 746 753 759 764 771 777 781 786 791 796 801 804 806 808 810 812 813
746 748 754 755 762 760 759 759 765 756 761 764 765 762 744 731 732 725 726 720 717 717 719 722 726 729 734 738 745 751 758 764 771 777 783 789 795 799 801 804 806 809 811 812
751 742 747 753 748 752 757 757 760 759 763 772 765 767 744 728 727 721 717 716 709 705 710 714 718 723 726 731 738 745 752 759 767 774 780 783 787 792 796 800 805 809 811 813
734 742 749 749 736 747 746 752 757 763 768 768 768 777 737 731 725 712 698 698 702 700 704 706 707 711 717 725 731 739 747 755 761 768 774 781 786 791 795 799 804 808 810 812
730 731 725 723 735 740 749 757 765 774 776 799 756 762 732 720 707 697 690 692 693 695 697 699 703 708 715 722 728 734 742 749 757 764 771 777 782 787 792 797 801 806 809 811
734 735 726 723 736 745 741 750 815 792 817 760 767 763 704 701 699 692 685 688 689 691 693 697 700 704 710 717 723 730 737 745 752 760 767 774 780 785 789 793 798 803 806 808
722 735 723 720 716 732 745 736 769 783 793 758 765 743 708 693 679 685 686 688 689 689 691 694 697 700 705 711 717 724 732 740 747 755 763 771 778 783 788 791 796 800 804 807
715 710 706 713 712 713 739 732 733 771 818 774 746 728 701 689 684 683 686 688 687 687 688 691 695 698 704 710 716 721 729 737 744 752 760 767 775 780 785 789 794 798 803 806
706 719 706 709 707 711 709 714 732 762 784 770 743 737 701 683 676 678 679 682 682 684 689 691 695 699 703 710 716 722 729 733 741 749 756 764 771 777 782 787 790 794 799 803
707 713 713 707 703 693 715 710 716 728 739 743 764 714 695 669 667 672 673 677 677 682 687 691 696 700 704 710 715 720 726 732 739 746 753 760 767 774 780 783 788 792 797 800
704 709 732 710 696 692 693 695 706 705 733 756 743 715 681 681 681 674 669 675 680 685 689 693 697 701 706 710 716 720 726 732 737 743 749 757 764 770 776 781 785 790 795 799
691 701 736 727 706 698 688 694 684 703 709 725 718 695 683 682 684 684 675 685 688 691 692 695 699 703 707 711 715 720 725 730 735 741 747 754 760 767 773 778 784 789 794 798
705 697 684 681 675 693 707 685 683 688 717 685 688 690 678 681 685 690 693 693 694 696 698 698 701 705 709 712 716 719 724 729 734 740 746 751 757 763 770 776 781 787 792 796
718 721 718 687 686 678 686 690 695 689 676 703 684 711 683 688 684 691 694 697 698 702 701 703 704 706 710 714 717 720 723 728 732 738 744 749 755 761 768 774 779 785 790 795
724 723 729 697 704 701 699 685 690 695 683 688 712 709 689 693 693 695 696 698 700 699 700 702 704 707 709 713 715 718 721 726 731 736 741 746 752 759 766 772 777 783 788 793
724 732 734 732 725 718 702 699 685 678 685 680 706 687 689 688 696 697 698 697 698 696 697 700 702 703 706 710 714 716 719 723 729 734 739 744 749 756 763 769 775 780 785 791
719 720 730 744 727 711 706 699 702 679 669 676 680 683 681 686 690 693 693 693 695 695 697 696 697 702 704 707 712 716 719 722 726 730 737 743 748 753 759 766 771 777 782 787
716 721 734 749 744 720 693 699 693 690 673 672 678 683 683 682 689 692 692 691 693 696 696 697 696 697 699 703 708 713 717 720 724 727 730 736 742 749 756 762 768 773 778 783
713 717 731 745 742 742 705 700 700 693 689 675 673 677 678 686 690 682 693 693 696 696 698 699 698 697 698 701 705 710 714 717 720 722 726 731 737 744 751 758 764 771 776 780
721 730 730 734 737 726 704 697 700 705 694 679 672 675 682 685 682 685 688 691 694 695 696 697 696 696 698 700 703 707 709 708 712 718 723 728 733 739 746 754 761 767 773 778
718 721 727 738 740 737 693 695 702 695 688 685 679 680 682 683 685 684 685 686 687 688 688 692 694 696 698 699 701 704 705 705 710 715 720 724 729 735 742 749 756 763 769 775
729 710 712 706 700 685 687 682 682 683 683 689 690 692 688 685 685 686 687 686 687 689 691 693 694 696 696 697 699 700 696 702 707 713 716 720 726 732 737 744 751 758 764 770
707 696 705 709 692 689 686 683 681 681 683 681 684 688 689 688 686 687 688 687 686 686 687 689 691 691 692 697 698 695 694 698 703 707 712 715 720 725 732 738 745 750 757 764
697 698 700 697 690 686 682 681 679 678 678 682 680 683 686 686 685 683 685 686 684 683 685 686 687 685 684 688 689 692 694 696 698 703 707 711 716 720 726 732 736 742 748 754
688 689 707 690 675 674 670 669 670 672 673 674 678 677 677 682 682 682 684 682 682 681 680 683 681 683 681 685 687 688 690 693 695 698 703 707 712 716 721 727 733 740 746 751